Satellite: ARISSAT1
Catalog number: 37772
Epoch time: 12004.04884568
Element set: 479
Inclination: 051.6129 deg
RA of node: 213.1240 deg
Eccentricity: 0.0007478
Arg of perigee: 255.9283 deg
Mean anomaly: 104.1611 deg
Mean motion: 16.41716225 rev/day
Decay rate: 1.3494171e-01 rev/day^2
Epoch rev: 2407
Checksum: 290
Satellite: JUGNU
Catalog number: 37839
Epoch time: 12011.86669271
Element set: 66
Inclination: 019.9626 deg
RA of node: 231.2779 deg
Eccentricity: 0.0018680
Arg of perigee: 290.9170 deg
Mean anomaly: 068.9196 deg
Mean motion: 14.12016756 rev/day
Decay rate: 6.19e-06 rev/day^2
Epoch rev: 1298
Checksum: 324
Satellite: SRMSAT
Catalog number: 37841
Epoch time: 12012.62750331
Element set: 67
Inclination: 019.9716 deg
RA of node: 228.4835 deg
Eccentricity: 0.0012518
Arg of perigee: 271.3421 deg
Mean anomaly: 088.5586 deg
Mean motion: 14.10107447 rev/day
Decay rate: 2.64e-06 rev/day^2
Epoch rev: 1306
Checksum: 271
Satellite: RAX-2
Catalog number: 37853
Epoch time: 12011.92979228
Element set: 0076
Inclination: 101.7086 deg
RA of node: 340.7456 deg
Eccentricity: 0.0252085
Arg of perigee: 078.6825 deg
Mean anomaly: 284.2579 deg
Mean motion: 14.78414789 rev/day
Decay rate: 4.281e-05 rev/day^2
Epoch rev: 01115
Checksum: 326
Satellite: AUBIESAT
Catalog number: 37854
Epoch time: 12012.52805919
Element set: 70
Inclination: 101.7109 deg
RA of node: 341.6782 deg
Eccentricity: 0.0253938
Arg of perigee: 076.7292 deg
Mean anomaly: 286.2081 deg
Mean motion: 14.78658672 rev/day
Decay rate: 4.412e-05 rev/day^2
Epoch rev: 1122
Checksum: 298
Satellite: HRBE
Catalog number: 37855
Epoch time: 12012.86844270
Element set: 69
Inclination: 101.7122 deg
RA of node: 342.1677 deg
Eccentricity: 0.0254121
Arg of perigee: 075.5333 deg
Mean anomaly: 287.3914 deg
Mean motion: 14.78602770 rev/day
Decay rate: 4.305e-05 rev/day^2
Epoch rev: 1127
Checksum: 280
/EX